Weather History for KO22 - April, 2014

Change the Weather History Date:

Friday, April 18, 2014

  Actual Average (KMOD) Record (KMOD)
Temperature  
Mean Temperature 62 °F -  
Max Temperature 75 °F 75 °F 92 °F (1939)
Min Temperature 48 °F 50 °F 35 °F (1933)
Degree Days  
Heating Degree Days 4 4  
Month to date heating degree days 93  
Since 1 July heating degree days 2098  
Cooling Degree Days 0 1  
Month to date cooling degree days 14  
Year to date cooling degree days 19  
Growing Degree Days 12 (Base 50)    
Moisture  
Dew Point 49 °F    
Average Humidity 69    
Maximum Humidity 94    
Minimum Humidity 43    
Precipitation  
Precipitation 0.00 in 0.03 in 0.38 in (1981)
Month to date precipitation 0.64  
Year to date precipitation 7.67  
Snow  
Snow 0.00 in - - ()
Month to date snowfall  
Since 1 July snowfall  
Snow Depth -    
Sea Level Pressure  
Sea Level Pressure 29.87 in    
Wind  
Wind Speed 2 mph (West)    
Max Wind Speed 9 mph    
Max Gust Speed -    
Visibility 10 miles    
Events      
T = Trace of Precipitation, MM = Missing Value Source: NWS Daily Summary

Daily Weather History Graph

Daily Weather History Graph

Search for Another Location

Airport or City:

Trip Planner

Search our weather history database for the weather conditions in past years. The results will help you decide how hot, cold, wet, or windy it might be!

Date:

Astronomy

Apr. 18, 2014 Rise Set
Actual Time 6:21 AM PDT 7:40 PM PDT
Civil Twilight 5:54 AM PDT 8:08 PM PDT
Nautical Twilight 5:21 AM PDT 8:40 PM PDT
Astronomical Twilight 4:47 AM PDT 9:15 PM PDT
Moon 11:28 PM PDT (4/18) 8:50 AM PDT (4/18)
Length of Visible Light 14h 13m
Length of Day
13h 18m
Waning Gibbous, 86% of the Moon is Illuminated
Apr 18
Waning Gibbous
Apr 22
Last Quarter
Apr 28
New
May 6
First Quarter
May 14
Full

Hourly Weather History & Observations

Time (PDT) Temp. Dew Point Humidity Pressure Visibility Wind Dir Wind Speed Gust Speed Precip Events Conditions
12:15 AM 53.6 °F 48.2 °F 82% 29.85 in 10.0 mi NE 3.5 mph - N/A   Partly Cloudy
12:35 AM 53.6 °F 48.2 °F 82% 29.85 in 10.0 mi Calm Calm - N/A   Scattered Clouds
12:55 AM 51.8 °F 48.2 °F 88% 29.84 in 10.0 mi Calm Calm - N/A   Scattered Clouds
1:35 AM 50.0 °F 48.2 °F 94% 29.84 in 10.0 mi Calm Calm - N/A   Clear
1:55 AM 50.0 °F 46.4 °F 87% 29.83 in 10.0 mi Calm Calm - N/A   Clear
2:15 AM 50.0 °F 46.4 °F 87% 29.83 in 10.0 mi Calm Calm - N/A   Clear
2:35 AM 50.0 °F 46.4 °F 87% 29.83 in 10.0 mi Calm Calm - N/A   Clear
2:55 AM 48.2 °F 46.4 °F 93% 29.83 in 10.0 mi Calm Calm - N/A   Partly Cloudy
3:15 AM 48.2 °F 46.4 °F 93% 29.83 in 10.0 mi Calm Calm - N/A   Partly Cloudy
3:35 AM 48.2 °F 46.4 °F 93% 29.83 in 10.0 mi Calm Calm - N/A   Partly Cloudy
3:55 AM 48.2 °F 46.4 °F 93% 29.83 in 10.0 mi Calm Calm - N/A   Scattered Clouds
4:15 AM 48.2 °F 46.4 °F 93% 29.82 in 10.0 mi Calm Calm - N/A   Partly Cloudy
4:35 AM 48.2 °F 46.4 °F 93% 29.82 in 10.0 mi Calm Calm - N/A   Clear
4:55 AM 48.2 °F 46.4 °F 93% 29.82 in 10.0 mi Calm Calm - N/A   Mostly Cloudy
5:15 AM 48.2 °F 46.4 °F 93% 29.83 in 10.0 mi Calm Calm - N/A   Overcast
5:35 AM 48.2 °F 46.4 °F 93% 29.83 in 10.0 mi NE 3.5 mph - N/A   Overcast
5:55 AM 48.2 °F 46.4 °F 93% 29.84 in 10.0 mi NNE 3.5 mph - N/A   Scattered Clouds
6:15 AM 48.2 °F 46.4 °F 93% 29.84 in 10.0 mi NE 3.5 mph - N/A   Clear
6:35 AM 48.2 °F 46.4 °F 93% 29.85 in 10.0 mi NE 3.5 mph - N/A   Clear
6:55 AM 48.2 °F 46.4 °F 93% 29.85 in 10.0 mi Calm Calm - N/A   Clear
7:15 AM 50.0 °F 46.4 °F 87% 29.85 in 10.0 mi Calm Calm - N/A   Clear
7:35 AM 53.6 °F 48.2 °F 82% 29.86 in 10.0 mi Calm Calm - N/A   Clear
7:55 AM 57.2 °F 48.2 °F 72% 29.87 in 10.0 mi Calm Calm - N/A   Clear
8:15 AM 59.0 °F 48.2 °F 67% 29.87 in 10.0 mi Calm Calm - N/A   Clear
8:35 AM 62.6 °F 48.2 °F 59% 29.87 in 10.0 mi Calm Calm - N/A   Clear
8:55 AM 64.4 °F 48.2 °F 56% 29.88 in 10.0 mi Calm Calm - N/A   Clear
9:15 AM 64.4 °F 50.0 °F 59% 29.88 in 10.0 mi Calm Calm - N/A   Clear
9:35 AM 66.2 °F 48.2 °F 52% 29.89 in 10.0 mi WSW 3.5 mph - N/A   Clear
9:55 AM 68.0 °F 50.0 °F 52% 29.89 in 10.0 mi West 4.6 mph - N/A   Clear
10:15 AM 66.2 °F 50.0 °F 56% 29.89 in 10.0 mi Calm Calm - N/A   Clear
10:35 AM 68.0 °F 48.2 °F 49% 29.89 in 10.0 mi West 4.6 mph - N/A   Clear
10:55 AM 69.8 °F 48.2 °F 46% 29.89 in 10.0 mi WNW 4.6 mph - N/A   Clear
11:15 AM 71.6 °F 48.2 °F 43% 29.89 in 10.0 mi West 4.6 mph - N/A   Clear
11:35 AM 71.6 °F 50.0 °F 46% 29.89 in 10.0 mi WSW 6.9 mph - N/A   Clear
11:55 AM 71.6 °F 50.0 °F 46% 29.89 in 10.0 mi SSW 4.6 mph - N/A   Clear
12:15 PM 71.6 °F 50.0 °F 46% 29.89 in 10.0 mi SW 4.6 mph - N/A   Clear
12:35 PM 71.6 °F 50.0 °F 46% 29.88 in 10.0 mi SE 5.8 mph - N/A   Clear
12:55 PM 73.4 °F 50.0 °F 44% 29.88 in 10.0 mi SE 5.8 mph - N/A   Clear
1:15 PM 73.4 °F 50.0 °F 44% 29.88 in 10.0 mi East 5.8 mph - N/A   Clear
1:35 PM 73.4 °F 53.6 °F 50% 29.87 in 10.0 mi ESE 6.9 mph - N/A   Clear
1:55 PM 73.4 °F 53.6 °F 50% 29.87 in 10.0 mi East 5.8 mph - N/A   Clear
2:15 PM 75.2 °F 53.6 °F 47% 29.87 in 10.0 mi ESE 5.8 mph - N/A   Clear
2:35 PM 75.2 °F 55.4 °F 50% 29.87 in 10.0 mi SSW 8.1 mph - N/A   Clear
2:55 PM 75.2 °F 53.6 °F 47% 29.87 in 10.0 mi West 6.9 mph - N/A   Clear
3:15 PM 75.2 °F 53.6 °F 47% 29.86 in 10.0 mi West 8.1 mph - N/A   Clear
3:35 PM 73.4 °F 53.6 °F 50% 29.86 in 10.0 mi West 8.1 mph - N/A   Clear
3:55 PM 73.4 °F 50.0 °F 44% 29.86 in 10.0 mi West 9.2 mph - N/A   Clear
4:15 PM 73.4 °F 50.0 °F 44% 29.86 in 10.0 mi West 9.2 mph - N/A   Clear
4:35 PM 71.6 °F 48.2 °F 43% 29.87 in 10.0 mi West 8.1 mph - N/A   Clear
4:55 PM 71.6 °F 50.0 °F 46% 29.87 in 10.0 mi West 4.6 mph - N/A   Clear
5:15 PM 69.8 °F 50.0 °F 49% 29.87 in 10.0 mi West 4.6 mph - N/A   Clear
5:35 PM 69.8 °F 50.0 °F 49% 29.88 in 10.0 mi West 5.8 mph - N/A   Clear
5:55 PM 68.0 °F 50.0 °F 52% 29.88 in 10.0 mi West 5.8 mph - N/A   Clear
6:35 PM 68.0 °F 50.0 °F 52% 29.88 in 10.0 mi West 3.5 mph - N/A   Clear
6:55 PM 66.2 °F 50.0 °F 56% 29.88 in 10.0 mi West 3.5 mph - N/A   Clear
7:55 PM 60.8 °F 50.0 °F 68% 29.91 in 10.0 mi Calm Calm - N/A   Clear
8:15 PM 57.2 °F 50.0 °F 77% 29.91 in 10.0 mi Calm Calm - N/A   Clear
8:35 PM 57.2 °F 50.0 °F 77% 29.92 in 10.0 mi Calm Calm - N/A   Scattered Clouds
8:55 PM 57.2 °F 50.0 °F 77% 29.93 in 10.0 mi Calm Calm - N/A   Clear
9:15 PM 55.4 °F 50.0 °F 82% 29.93 in 10.0 mi Calm Calm - N/A   Clear
9:35 PM 55.4 °F 50.0 °F 82% 29.93 in 10.0 mi Calm Calm - N/A   Clear
9:55 PM 55.4 °F 48.2 °F 77% 29.92 in 10.0 mi Calm Calm - N/A   Clear
10:15 PM 55.4 °F 50.0 °F 82% 29.92 in 10.0 mi North 3.5 mph - N/A   Clear
10:35 PM 55.4 °F 48.2 °F 77% 29.92 in 10.0 mi Calm Calm - N/A   Clear
10:55 PM 53.6 °F 48.2 °F 82% 29.92 in 10.0 mi Calm Calm - N/A   Clear
11:15 PM 53.6 °F 48.2 °F 82% 29.92 in 10.0 mi Calm Calm - N/A   Clear
11:35 PM 51.8 °F 48.2 °F 88% 29.93 in 10.0 mi Calm Calm - N/A   Clear
11:55 PM 51.8 °F 48.2 °F 88% 29.92 in 10.0 mi NE 4.6 mph - N/A   Partly Cloudy